Regional Weather Roundup
Issued by NWS

Home | Current Version | Previous Version | Text Only | Print | Product List | Glossary Off
Versions: 1 2 3 4 5 6 7 8 9 10 11 12 13 14 15 16 17 18 19 20 21 22 23 24 25 26 27 28 29 30 31 32 33 34 35 36 37 38 39 40 41 42 43 44 45 46 47 48 49 50

000
ASUS44 KMEG 212310
RWRTN
TENNESSEE HOURLY STATE WEATHER ROUNDUP
NATIONAL WEATHER SERVICE MEMPHIS TN
500 PM CST SAT JAN 21 2017

TNZ002-004-019-021-049-052-054-088>092-220000-
WEST TENNESSEE

CITY           SKY/WX    TMP DP  RH WIND       PRES   REMARKS
MEMPHIS INTL   MOCLDY    67  52  58 S8        29.55S
NWS MEMPHIS      N/A     67 N/A N/A MISG        N/A
JACKSON        PTCLDY    67  51  56 S6        29.58R
DYERSBURG      PTCLDY    66  50  55 S5        29.56R
UNION CITY     CLEAR     63  50  63 CALM      29.55S
PARIS          CLEAR     61  48  63 CALM      29.58R
HUNTINGDON     CLEAR     64  52  63 S5        29.57R
$$

TNZ008-025-027-028-033-062-065-066-220000-
NORTH MIDDLE TENNESSEE

CITY           SKY/WX    TMP DP  RH WIND       PRES   REMARKS
NASHVILLE      MOCLDY    64  48  56 S6        29.62R
PORTLAND       CLEAR     63  50  63 SE6       29.63R
CLARKSVILLE    CLOUDY    64  48  56 SE5       29.58F
SMYRNA         PTCLDY    62  50  64 S5        29.63R
GALLATIN       CLEAR     63  50  63 SE5       29.65R
CROSSVILLE     CLEAR     56  46  69 MISG      29.66F
$$

TNZ061-075-076-078-094-096-097-220000-
SOUTH MIDDLE TENNESSEE

CITY           SKY/WX    TMP DP  RH WIND       PRES   REMARKS
TULLAHOMA      CLEAR     61  48  63 CALM      29.63F
WINCHESTER     CLEAR     57  50  77 E7        29.63S
MCMINNVILLE    CLEAR     61  52  72 CALM      29.63S
COLUMBIA       CLEAR     63  55  77 S5        29.59S
SHELBYVILLE    CLEAR     61  54  77 E3        29.63S
$$

TNZ017-018-042-046-047-220000-
NORTHEAST TENNESSEE

CITY           SKY/WX    TMP DP  RH WIND       PRES   REMARKS
TRI CITIES     CLOUDY    57  52  83 CALM      29.67S
ELIZABETHTON   CLOUDY    54  50  87 CALM      29.67R
$$

TNZ012-013-036-069-073-074-220000-
CENTRAL EAST TENNESSEE

CITY           SKY/WX    TMP DP  RH WIND       PRES   REMARKS
KNOXVILLE      CLOUDY    57  51  80 NE6       29.64S
OAK RIDGE      CLOUDY    59  51  75 CALM      29.66S
GATLINBURG     MOCLDY    54  52  94 SW3       29.65R
MORRISTOWN     CLOUDY    55  52  88 E3        29.64S
JACKSBORO      MOCLDY    55  52  88 CALM      29.68F
$$

TNZ083-085-099-220000-
SOUTHEAST TENNESSEE

CITY           SKY/WX    TMP DP  RH WIND       PRES   REMARKS
CHATTANOOGA    PTCLDY    62  51  67 CALM      29.65R
$$

SKY/WX REPORTED AS FAIR MEANS FEW OR NO CLOUDS BELOW
12 THOUSAND FEET.




USA.gov is the U.S. government's official web portal to all federal, state and local government web resources and services.